TimeEDT,TemperatureF,Dew PointF,Humidity,Sea Level PressureIn,VisibilityMPH,Wind Direction,Wind SpeedMPH,Gust SpeedMPH,PrecipitationIn,Events,Conditions,WindDirDegrees,DateUTC
12:24 AM,64.4,64.4,100,29.78,3.0,South,5.8,-,0.00,Rain,Light Rain,180,2013-07-11 04:24:00
12:51 AM,64.4,64.4,100,29.77,1.5,South,6.9,-,0.00,,Overcast,190,2013-07-11 04:51:00
12:53 AM,64.0,64.0,100,29.76,1.5,SSW,5.8,-,0.00,,Overcast,200,2013-07-11 04:53:00
1:50 AM,64.4,64.4,100,29.76,0.5,South,5.8,-,N/A,Fog,Fog,190,2013-07-11 05:50:00
1:53 AM,64.0,64.0,100,29.75,0.5,South,5.8,-,N/A,Fog,Fog,180,2013-07-11 05:53:00
2:53 AM,64.0,64.0,100,29.74,0.5,SSE,4.6,-,N/A,Fog,Fog,160,2013-07-11 06:53:00
3:02 AM,64.4,64.4,100,29.75,0.2,SSE,4.6,-,N/A,Fog,Fog,160,2013-07-11 07:02:00
3:44 AM,64.4,64.4,100,29.76,0.8,Calm,Calm,-,N/A,,Mist,0,2013-07-11 07:44:00
3:53 AM,64.0,64.0,100,29.75,0.8,SW,3.5,-,N/A,,Mist,230,2013-07-11 07:53:00
4:53 AM,64.0,64.0,100,29.76,0.8,Calm,Calm,-,N/A,,Mist,0,2013-07-11 08:53:00
5:13 AM,64.4,64.4,100,29.77,0.2,Calm,Calm,-,N/A,Fog,Fog,0,2013-07-11 09:13:00
5:42 AM,64.4,64.4,100,29.78,0.5,SSE,4.6,-,N/A,Fog,Fog,160,2013-07-11 09:42:00
5:53 AM,64.9,64.9,100,29.78,0.5,South,3.5,-,N/A,Fog,Fog,190,2013-07-11 09:53:00
6:34 AM,66.2,66.2,100,29.79,1.2,SSE,3.5,-,N/A,,Overcast,160,2013-07-11 10:34:00
6:53 AM,66.0,66.0,100,29.78,1.0,South,3.5,-,N/A,,Overcast,180,2013-07-11 10:53:00
7:53 AM,68.0,66.9,96,29.78,0.8,South,4.6,-,N/A,,Overcast,170,2013-07-11 11:53:00
8:30 AM,68.0,68.0,100,29.78,3.0,Calm,Calm,-,N/A,,Overcast,0,2013-07-11 12:30:00
8:53 AM,69.1,68.0,96,29.76,9.0,South,3.5,-,N/A,,Mostly Cloudy,190,2013-07-11 12:53:00
9:11 AM,71.6,68.0,88,29.77,10.0,Variable,3.5,-,N/A,,Mostly Cloudy,0,2013-07-11 13:11:00
9:53 AM,72.0,68.0,87,29.78,9.0,Calm,Calm,-,N/A,,Overcast,0,2013-07-11 13:53:00
10:33 AM,73.4,69.8,88,29.80,9.0,Calm,Calm,-,N/A,,Overcast,0,2013-07-11 14:33:00
10:53 AM,75.9,69.1,79,29.80,10.0,Variable,5.8,-,N/A,,Overcast,0,2013-07-11 14:53:00
11:53 AM,75.0,66.9,76,29.82,7.0,West,8.1,-,N/A,,Overcast,280,2013-07-11 15:53:00
12:26 PM,69.8,66.2,88,29.85,2.5,West,9.2,17.3,0.06,Rain,Heavy Rain,280,2013-07-11 16:26:00
12:53 PM,69.1,66.0,90,29.84,2.5,West,3.5,-,0.12,Rain,Rain,260,2013-07-11 16:53:00
1:29 PM,68.0,66.2,94,29.84,3.0,South,3.5,-,0.10,Rain,Rain,190,2013-07-11 17:29:00
1:53 PM,69.1,66.0,90,29.83,7.0,ESE,5.8,-,0.11,Rain,Light Rain,120,2013-07-11 17:53:00
2:53 PM,71.1,66.0,84,29.82,10.0,Calm,Calm,-,0.01,,Overcast,0,2013-07-11 18:53:00
3:53 PM,73.0,66.9,81,29.82,10.0,WSW,3.5,-,N/A,,Overcast,240,2013-07-11 19:53:00
4:53 PM,73.9,66.9,79,29.82,10.0,Calm,Calm,-,N/A,,Mostly Cloudy,0,2013-07-11 20:53:00
5:53 PM,75.9,68.0,76,29.83,10.0,Calm,Calm,-,N/A,,Mostly Cloudy,0,2013-07-11 21:53:00
6:53 PM,73.9,68.0,82,29.85,10.0,Calm,Calm,-,N/A,,Mostly Cloudy,0,2013-07-11 22:53:00
7:53 PM,72.0,70.0,93,29.88,10.0,Calm,Calm,-,N/A,,Mostly Cloudy,0,2013-07-11 23:53:00
8:53 PM,73.0,66.0,79,29.90,10.0,NNW,6.9,-,N/A,,Overcast,330,2013-07-12 00:53:00
9:53 PM,70.0,61.0,73,29.92,10.0,NW,4.6,-,N/A,,Mostly Cloudy,320,2013-07-12 01:53:00
10:53 PM,69.1,57.9,68,29.95,10.0,NNW,5.8,-,N/A,,Overcast,340,2013-07-12 02:53:00
11:53 PM,66.9,57.9,73,29.97,10.0,NNW,4.6,-,N/A,,Overcast,340,2013-07-12 03:53:00